TimeCET,TemperatureF,Dew PointF,Humidity,Sea Level PressureIn,VisibilityMPH,Wind Direction,Wind SpeedMPH,Gust SpeedMPH,PrecipitationIn,Events,Conditions,WindDirDegrees,DateUTC
12:00 AM,48.2,42.8,82,30.18,-9999.0,SSE,6.9,-,N/A,,Clear,160,2013-11-12 23:00:00
1:00 AM,47,43,81,30.19,16,East,3.5,,,,,100,2013-11-13 00:00:00
1:00 AM,44.6,41.0,87,30.18,-9999.0,East,3.5,-,N/A,,Clear,100,2013-11-13 00:00:00
2:00 AM,44.6,42.8,93,30.15,-9999.0,Calm,Calm,-,N/A,,Clear,0,2013-11-13 01:00:00
3:00 AM,44.6,41.0,87,30.18,-9999.0,SW,3.5,-,N/A,,Clear,220,2013-11-13 02:00:00
4:00 AM,39.2,39.2,100,30.15,-9999.0,South,3.5,-,N/A,,Clear,180,2013-11-13 03:00:00
5:00 AM,41.0,41.0,100,30.15,-9999.0,Variable,2.3,-,N/A,,Clear,0,2013-11-13 04:00:00
6:00 AM,41.0,41.0,100,30.15,0.3,East,1.2,-,N/A,Fog,Fog,80,2013-11-13 05:00:00
6:30 AM,41.0,41.0,100,30.15,0.2,SSE,2.3,-,N/A,Fog,Fog,150,2013-11-13 05:30:00
7:00 AM,43,43,100,30.19,0,SSW,3.5,,,Fog,Patches of Fog,210,2013-11-13 06:00:00
7:00 AM,41.0,41.0,100,30.15,0.1,SSW,3.5,-,N/A,Fog,Fog,210,2013-11-13 06:00:00
8:00 AM,42.8,42.8,100,30.15,0.1,Calm,Calm,-,N/A,Fog,Fog,0,2013-11-13 07:00:00
9:00 AM,42.8,42.8,100,30.18,0.1,Calm,Calm,-,N/A,Fog,Fog,0,2013-11-13 08:00:00
9:11 AM,44.6,44.6,100,30.18,0.2,Calm,Calm,-,N/A,Fog,Fog,0,2013-11-13 08:11:00
10:00 AM,46.4,46.4,100,30.18,-9999.0,Variable,2.3,-,N/A,Fog,Fog,0,2013-11-13 09:00:00
10:33 AM,48.2,46.4,93,30.21,3.1,Calm,Calm,-,N/A,,Mostly Cloudy,0,2013-11-13 09:33:00
11:00 AM,50.0,50.0,100,30.21,5.0,Variable,1.2,-,N/A,,Partly Cloudy,0,2013-11-13 10:00:00
12:00 PM,57.2,50.0,77,30.18,-9999.0,Variable,2.3,-,N/A,,Clear,0,2013-11-13 11:00:00
1:00 PM,60,50,60,30.12,7,NE,3.5,,,,Partly Cloudy,40,2013-11-13 12:00:00
1:00 PM,60.8,50.0,68,30.18,-9999.0,NE,3.5,-,N/A,,Clear,40,2013-11-13 12:00:00
2:00 PM,60.8,50.0,68,30.15,-9999.0,NNE,3.5,-,N/A,,Clear,30,2013-11-13 13:00:00
3:00 PM,62.6,50.0,63,30.12,-9999.0,Variable,2.3,-,N/A,,Clear,0,2013-11-13 14:00:00
4:00 PM,62.6,50.0,63,30.12,-9999.0,Variable,2.3,-,N/A,,Clear,0,2013-11-13 15:00:00
5:00 PM,62.6,50.0,63,30.12,-9999.0,NNW,3.5,-,N/A,,Clear,330,2013-11-13 16:00:00
6:00 PM,60.8,50.0,68,30.15,6.2,West,4.6,-,N/A,,Mostly Cloudy,280,2013-11-13 17:00:00
7:00 PM,59,51,67,30.13,9,SE,5.8,,,,Mostly Cloudy,130,2013-11-13 18:00:00
7:00 PM,57.2,51.8,82,30.15,6.2,SE,4.6,-,N/A,,Scattered Clouds,140,2013-11-13 18:00:00
8:00 PM,55.4,51.8,88,30.18,6.2,South,4.6,-,N/A,,Partly Cloudy,190,2013-11-13 19:00:00
9:00 PM,53.6,50.0,88,30.18,6.2,SSW,3.5,-,N/A,,Scattered Clouds,210,2013-11-13 20:00:00
10:00 PM,51.8,48.2,88,30.18,-9999.0,South,4.6,-,N/A,,Clear,190,2013-11-13 21:00:00
11:00 PM,51.8,48.2,88,30.21,-9999.0,South,3.5,-,N/A,,Clear,170,2013-11-13 22:00:00